EWR2271 FMNA-FMCZ

Flight info

Callsign EWR2271
Flight time 0h 51m
Altitude 32000
Route SOAVI SOAVI1D
Aircraft A20N/M-SDE2E3FGHIRWXY/LB1

Departure

Time 2026-04-28 01:32
Airport Arrachart Airport (FMNA)

Arrival

Time 2026-04-28 02:23
Airport Dzaoudzi Pamandzi International Airport (FMCZ)
Time Latitude Longitude Altitude Speed Heading
2026-04-28 01:27 -12.35054 49.29521 371 ft 0 kts 148°
2026-04-28 01:29 -12.35062 49.29522 371 ft 7 kts 172°
2026-04-28 01:29 -12.35107 49.29518 375 ft 10 kts 181°
2026-04-28 01:30 -12.35158 49.29572 374 ft 18 kts 114°
2026-04-28 01:30 -12.35243 49.29688 378 ft 19 kts 131°
2026-04-28 01:30 -12.35289 49.29754 382 ft 1 kts 117°
2026-04-28 01:30 -12.35304 49.29793 385 ft 10 kts 127°
2026-04-28 01:31 -12.35345 49.29774 385 ft 8 kts 270°
2026-04-28 01:31 -12.35322 49.29744 383 ft 0 kts 304°
2026-04-28 01:31 -12.35309 49.29725 381 ft 12 kts 304°
2026-04-28 01:31 -12.35115 49.29430 367 ft 91 kts 304°
2026-04-28 01:32 -12.34591 49.28640 368 ft 170 kts 304°
2026-04-28 01:32 -12.33868 49.27617 1032 ft 185 kts 305°
2026-04-28 01:32 -12.33113 49.26491 1880 ft 197 kts 305°
2026-04-28 01:32 -12.32305 49.25273 2476 ft 221 kts 296°
2026-04-28 01:33 -12.31881 49.23671 2794 ft 249 kts 269°
2026-04-28 01:33 -12.32188 49.21878 3294 ft 263 kts 246°
2026-04-28 01:33 -12.33153 49.20284 4042 ft 265 kts 224°
2026-04-28 01:33 -12.34519 49.19017 4858 ft 268 kts 223°
2026-04-28 01:34 -12.35690 49.17514 5635 ft 273 kts 238°
2026-04-28 01:34 -12.36589 49.15785 6434 ft 277 kts 244°
2026-04-28 01:34 -12.37368 49.13966 7195 ft 281 kts 247°
2026-04-28 01:34 -12.38090 49.12125 7956 ft 284 kts 248°
2026-04-28 01:35 -12.38821 49.10231 8751 ft 288 kts 248°
2026-04-28 01:35 -12.39574 49.08317 9545 ft 291 kts 248°
2026-04-28 01:35 -12.40354 49.06390 10256 ft 297 kts 247°
2026-04-28 01:35 -12.41183 49.04385 10581 ft 316 kts 247°
2026-04-28 01:36 -12.42077 49.02260 10919 ft 332 kts 246°
2026-04-28 01:36 -12.43010 49.00062 11482 ft 339 kts 246°
2026-04-28 01:36 -12.43957 48.97839 12116 ft 343 kts 246°
2026-04-28 01:36 -12.44902 48.95620 12753 ft 346 kts 246°
2026-04-28 01:37 -12.45868 48.93348 13404 ft 350 kts 246°
2026-04-28 01:37 -12.46843 48.91053 14020 ft 353 kts 246°
2026-04-28 01:37 -12.47823 48.88743 14625 ft 355 kts 246°
2026-04-28 01:37 -12.48809 48.86418 15234 ft 357 kts 246°
2026-04-28 01:38 -12.49804 48.84068 15869 ft 360 kts 246°
2026-04-28 01:38 -12.50803 48.81708 16483 ft 362 kts 246°
2026-04-28 01:38 -12.51808 48.79335 17079 ft 365 kts 246°
2026-04-28 01:38 -12.52808 48.76972 17646 ft 367 kts 245°
2026-04-28 01:39 -12.53827 48.74564 18199 ft 370 kts 245°
2026-04-28 01:39 -12.54855 48.72135 18646 ft 373 kts 245°
2026-04-28 01:39 -12.55885 48.69697 19101 ft 375 kts 246°
2026-04-28 01:39 -12.56573 48.68070 19396 ft 377 kts 246°
2026-04-28 01:40 -12.57973 48.64758 19997 ft 380 kts 246°
2026-04-28 01:40 -12.59026 48.62266 20457 ft 382 kts 246°
2026-04-28 01:40 -12.60084 48.59759 20935 ft 384 kts 246°
2026-04-28 01:40 -12.61150 48.57235 21408 ft 387 kts 246°
2026-04-28 01:41 -12.62220 48.54701 21882 ft 390 kts 246°
2026-04-28 01:41 -12.63301 48.52139 22361 ft 392 kts 246°
2026-04-28 01:41 -12.64373 48.49596 22847 ft 395 kts 246°
2026-04-28 01:41 -12.65465 48.47006 23338 ft 398 kts 246°
2026-04-28 01:42 -12.66566 48.44394 23746 ft 400 kts 246°
2026-04-28 01:42 -12.67673 48.41766 24135 ft 403 kts 246°
2026-04-28 01:42 -12.68793 48.39110 24528 ft 406 kts 246°
2026-04-28 01:42 -12.69912 48.36453 24859 ft 408 kts 245°
2026-04-28 01:43 -12.71029 48.33799 24973 ft 398 kts 245°
2026-04-28 01:43 -12.72106 48.31237 24994 ft 386 kts 245°
2026-04-28 01:43 -12.73162 48.28724 24992 ft 382 kts 245°
2026-04-28 01:43 -12.74212 48.26228 24989 ft 382 kts 245°
2026-04-28 01:44 -12.75264 48.23728 24988 ft 382 kts 245°
2026-04-28 01:44 -12.76316 48.21226 24992 ft 382 kts 245°
2026-04-28 01:44 -12.77356 48.18753 24991 ft 382 kts 245°
2026-04-28 01:44 -12.78419 48.16224 24991 ft 382 kts 245°
2026-04-28 01:45 -12.79456 48.13753 24992 ft 382 kts 245°
2026-04-28 01:45 -12.80507 48.11251 24990 ft 382 kts 245°
2026-04-28 01:45 -12.81557 48.08751 24991 ft 382 kts 245°
2026-04-28 01:45 -12.82607 48.06248 24992 ft 382 kts 245°
2026-04-28 01:46 -12.83659 48.03738 24991 ft 382 kts 245°
2026-04-28 01:46 -12.84710 48.01233 24989 ft 382 kts 245°
2026-04-28 01:46 -12.85419 47.99542 24989 ft 382 kts 245°
2026-04-28 01:46 -12.86808 47.96227 24990 ft 383 kts 245°
2026-04-28 01:47 -12.87505 47.94563 24989 ft 383 kts 245°
2026-04-28 01:47 -12.88555 47.92055 24994 ft 383 kts 245°
2026-04-28 01:47 -12.89605 47.89547 24992 ft 383 kts 245°
2026-04-28 01:47 -12.90654 47.87041 24992 ft 382 kts 245°
2026-04-28 01:48 -12.91701 47.84539 24992 ft 383 kts 244°
2026-04-28 01:48 -12.92752 47.82028 24992 ft 383 kts 244°
2026-04-28 01:48 -12.93800 47.79521 24990 ft 383 kts 244°
2026-04-28 01:48 -12.94849 47.77011 24993 ft 383 kts 244°
2026-04-28 01:49 -12.95899 47.74499 24992 ft 383 kts 244°
2026-04-28 01:49 -12.96938 47.72014 24990 ft 383 kts 244°
2026-04-28 01:49 -12.97985 47.69505 24991 ft 383 kts 244°
2026-04-28 01:49 -12.99033 47.66996 24994 ft 383 kts 244°
2026-04-28 01:50 -13.00081 47.64486 24991 ft 383 kts 244°
2026-04-28 01:50 -13.01131 47.61970 24992 ft 383 kts 244°
2026-04-28 01:50 -13.02178 47.59459 24992 ft 383 kts 244°
2026-04-28 01:50 -13.03230 47.56936 24971 ft 383 kts 244°
2026-04-28 01:51 -13.04279 47.54420 24762 ft 384 kts 244°
2026-04-28 01:51 -13.05317 47.51931 24538 ft 384 kts 244°
2026-04-28 01:51 -13.06368 47.49409 24317 ft 383 kts 245°
2026-04-28 01:51 -13.07410 47.46905 24093 ft 381 kts 245°
2026-04-28 01:52 -13.08451 47.44406 23874 ft 380 kts 245°
2026-04-28 01:52 -13.09488 47.41913 23656 ft 379 kts 245°
2026-04-28 01:52 -13.10520 47.39432 23439 ft 377 kts 245°
2026-04-28 01:52 -13.11549 47.36957 23189 ft 376 kts 245°
2026-04-28 01:53 -13.12564 47.34517 22926 ft 375 kts 245°
2026-04-28 01:53 -13.13587 47.32054 22668 ft 373 kts 245°
2026-04-28 01:53 -13.14603 47.29611 22417 ft 372 kts 245°
2026-04-28 01:53 -13.15613 47.27177 22165 ft 370 kts 245°
2026-04-28 01:54 -13.16622 47.24750 21914 ft 369 kts 245°
2026-04-28 01:54 -13.17627 47.22328 21670 ft 367 kts 245°
2026-04-28 01:54 -13.18629 47.19915 21426 ft 366 kts 245°
2026-04-28 01:54 -13.19624 47.17516 21180 ft 365 kts 245°
2026-04-28 01:55 -13.20618 47.15121 20933 ft 364 kts 245°
2026-04-28 01:55 -13.21607 47.12737 20698 ft 363 kts 245°
2026-04-28 01:55 -13.22595 47.10353 20471 ft 361 kts 245°
2026-04-28 01:55 -13.23575 47.07988 20228 ft 360 kts 245°
2026-04-28 01:56 -13.24541 47.05656 19996 ft 359 kts 245°
2026-04-28 01:56 -13.25518 47.03299 19763 ft 358 kts 245°
2026-04-28 01:56 -13.26488 47.00955 19527 ft 357 kts 245°
2026-04-28 01:56 -13.27458 46.98613 19298 ft 355 kts 245°
2026-04-28 01:57 -13.28424 46.96278 19073 ft 354 kts 245°
2026-04-28 01:57 -13.29386 46.93953 18846 ft 353 kts 245°
2026-04-28 01:57 -13.30345 46.91635 18625 ft 352 kts 245°
2026-04-28 01:57 -13.31299 46.89327 18403 ft 351 kts 245°
2026-04-28 01:58 -13.32252 46.87022 18185 ft 350 kts 246°
2026-04-28 01:58 -13.33200 46.84726 17926 ft 349 kts 246°
2026-04-28 01:58 -13.34146 46.82436 17673 ft 348 kts 246°
2026-04-28 01:58 -13.35088 46.80153 17423 ft 347 kts 246°
2026-04-28 01:59 -13.36030 46.77871 17167 ft 347 kts 246°
2026-04-28 01:59 -13.36970 46.75593 16922 ft 346 kts 246°
2026-04-28 01:59 -13.37911 46.73313 16682 ft 346 kts 246°
2026-04-28 01:59 -13.38848 46.71042 16434 ft 345 kts 246°
2026-04-28 02:00 -13.39784 46.68771 16192 ft 345 kts 246°
2026-04-28 02:00 -13.40708 46.66531 15947 ft 345 kts 246°
2026-04-28 02:00 -13.41641 46.64265 15717 ft 344 kts 246°
2026-04-28 02:00 -13.42575 46.61999 15487 ft 344 kts 246°
2026-04-28 02:01 -13.43508 46.59731 15244 ft 344 kts 246°
2026-04-28 02:01 -13.44440 46.57470 15012 ft 344 kts 246°
2026-04-28 02:01 -13.45373 46.55204 14781 ft 344 kts 246°
2026-04-28 02:01 -13.46304 46.52942 14555 ft 344 kts 246°
2026-04-28 02:02 -13.47238 46.50674 14320 ft 344 kts 246°
2026-04-28 02:02 -13.48169 46.48410 14094 ft 344 kts 246°
2026-04-28 02:02 -13.49101 46.46142 13861 ft 344 kts 246°
2026-04-28 02:02 -13.50034 46.43874 13636 ft 343 kts 246°
2026-04-28 02:03 -13.50948 46.41646 13386 ft 343 kts 246°
2026-04-28 02:03 -13.51876 46.39387 13134 ft 341 kts 246°
2026-04-28 02:03 -13.52795 46.37148 12881 ft 340 kts 246°
2026-04-28 02:03 -13.53711 46.34916 12630 ft 338 kts 246°
2026-04-28 02:04 -13.54623 46.32694 12388 ft 337 kts 246°
2026-04-28 02:04 -13.55533 46.30475 12143 ft 335 kts 246°
2026-04-28 02:04 -13.56436 46.28273 11899 ft 334 kts 246°
2026-04-28 02:04 -13.57327 46.26099 11658 ft 333 kts 246°
2026-04-28 02:05 -13.58009 46.23826 11417 ft 332 kts 259°
2026-04-28 02:05 -13.58141 46.21468 11178 ft 331 kts 275°
2026-04-28 02:05 -13.57605 46.19191 10944 ft 328 kts 294°
2026-04-28 02:05 -13.56475 46.17152 10715 ft 327 kts 304°
2026-04-28 02:06 -13.55166 46.15250 10478 ft 326 kts 307°
2026-04-28 02:06 -13.53827 46.13378 10245 ft 325 kts 307°
2026-04-28 02:06 -13.52491 46.11511 10017 ft 323 kts 307°
2026-04-28 02:06 -13.51163 46.09651 9785 ft 320 kts 307°
2026-04-28 02:07 -13.49885 46.07856 9538 ft 309 kts 307°
2026-04-28 02:07 -13.48636 46.06099 9284 ft 300 kts 307°
2026-04-28 02:07 -13.47412 46.04374 9044 ft 297 kts 307°
2026-04-28 02:07 -13.46190 46.02654 8797 ft 297 kts 307°
2026-04-28 02:08 -13.44975 46.00943 8552 ft 297 kts 306°
2026-04-28 02:08 -13.43760 45.99229 8303 ft 295 kts 306°
2026-04-28 02:08 -13.42552 45.97526 8060 ft 294 kts 306°
2026-04-28 02:08 -13.41346 45.95829 7819 ft 294 kts 306°
2026-04-28 02:09 -13.40146 45.94138 7580 ft 293 kts 306°
2026-04-28 02:09 -13.38944 45.92447 7341 ft 292 kts 306°
2026-04-28 02:09 -13.37747 45.90764 7104 ft 291 kts 306°
2026-04-28 02:09 -13.36555 45.89086 6868 ft 290 kts 306°
2026-04-28 02:10 -13.35381 45.87433 6644 ft 290 kts 306°
2026-04-28 02:10 -13.34193 45.85762 6413 ft 289 kts 306°
2026-04-28 02:10 -13.33012 45.84101 6174 ft 288 kts 306°
2026-04-28 02:10 -13.31833 45.82442 5929 ft 287 kts 306°
2026-04-28 02:11 -13.30658 45.80790 5694 ft 285 kts 306°
2026-04-28 02:11 -13.29489 45.79147 5442 ft 284 kts 306°
2026-04-28 02:11 -13.28324 45.77510 5199 ft 283 kts 306°
2026-04-28 02:11 -13.27168 45.75887 4998 ft 280 kts 306°
2026-04-28 02:12 -13.26017 45.74270 4873 ft 280 kts 306°
2026-04-28 02:12 -13.24872 45.72659 4749 ft 279 kts 306°
2026-04-28 02:12 -13.23737 45.71065 4630 ft 279 kts 306°
2026-04-28 02:12 -13.22591 45.69456 4508 ft 279 kts 306°
2026-04-28 02:13 -13.21445 45.67847 4386 ft 279 kts 305°
2026-04-28 02:13 -13.20302 45.66242 4262 ft 279 kts 305°
2026-04-28 02:13 -13.19157 45.64635 4138 ft 278 kts 305°
2026-04-28 02:13 -13.18014 45.63032 4018 ft 278 kts 305°
2026-04-28 02:14 -13.16875 45.61432 3893 ft 276 kts 304°
2026-04-28 02:14 -13.15742 45.59842 3773 ft 277 kts 304°
2026-04-28 02:14 -13.14608 45.58250 3661 ft 276 kts 305°
2026-04-28 02:14 -13.13485 45.56677 3540 ft 276 kts 304°
2026-04-28 02:15 -13.11226 45.53511 3301 ft 274 kts 304°
2026-04-28 02:15 -13.10097 45.51928 3177 ft 275 kts 304°
2026-04-28 02:15 -13.08969 45.50348 3060 ft 275 kts 304°
2026-04-28 02:16 -13.07843 45.48770 2937 ft 274 kts 304°
2026-04-28 02:16 -13.06718 45.47194 2889 ft 270 kts 304°
2026-04-28 02:16 -13.05644 45.45692 2888 ft 251 kts 304°
2026-04-28 02:16 -13.04648 45.44302 2891 ft 240 kts 304°
2026-04-28 02:17 -13.03665 45.42925 2891 ft 240 kts 304°
2026-04-28 02:17 -13.02662 45.41550 2882 ft 241 kts 308°
2026-04-28 02:17 -13.01397 45.40404 2889 ft 244 kts 324°
2026-04-28 02:17 -12.99964 45.39492 2881 ft 238 kts 328°
2026-04-28 02:18 -12.98569 45.38670 2912 ft 222 kts 329°
2026-04-28 02:18 -12.97278 45.37917 2901 ft 207 kts 329°
2026-04-28 02:18 -12.96049 45.37196 2893 ft 195 kts 328°
2026-04-28 02:18 -12.94948 45.36548 2859 ft 174 kts 328°
2026-04-28 02:19 -12.93937 45.35950 2730 ft 164 kts 328°
2026-04-28 02:19 -12.92969 45.35375 2558 ft 154 kts 328°
2026-04-28 02:19 -12.92071 45.34843 2359 ft 146 kts 327°
2026-04-28 02:19 -12.91200 45.34325 2091 ft 144 kts 327°
2026-04-28 02:20 -12.90329 45.33806 1909 ft 144 kts 326°
2026-04-28 02:20 -12.89460 45.33288 1734 ft 144 kts 327°
2026-04-28 02:20 -12.88596 45.32774 1526 ft 142 kts 327°
2026-04-28 02:20 -12.87741 45.32266 1335 ft 142 kts 326°
2026-04-28 02:21 -12.86886 45.31757 1151 ft 142 kts 327°
2026-04-28 02:21 -12.86035 45.31250 963 ft 141 kts 328°
2026-04-28 02:21 -12.85198 45.30753 795 ft 139 kts 327°
2026-04-28 02:21 -12.84367 45.30260 607 ft 138 kts 327°
2026-04-28 02:22 -12.83545 45.29773 414 ft 133 kts 328°
2026-04-28 02:22 -12.82746 45.29310 297 ft 132 kts 328°
2026-04-28 02:22 -12.81953 45.28826 147 ft 132 kts 326°
2026-04-28 02:22 -12.81208 45.28370 31 ft 116 kts 327°
2026-04-28 02:23 -12.80652 45.28053 29 ft 55 kts 334°
2026-04-28 02:23 -12.80549 45.28083 25 ft 0 kts 86°
2026-04-28 02:23 -12.80555 45.28104 25 ft 8 kts 112°
2026-04-28 02:24 -12.80601 45.28163 25 ft 3 kts 88°
2026-04-28 02:24 -12.80586 45.28188 27 ft 0 kts 54°